{"data":{"norad_id":67043,"intl_designator":"2025-294P","name":"STARLINK-35901","alt_names":[],"object_type":"PAYLOAD","status":"ACTIVE","operator":null,"country":"US","launch_date":"2025-12-11","launch_site_code":"AFETR","launch_vehicle":null,"mission":null,"orbit_class":"UNKNOWN","rcs_meters":null,"size_class":null,"mass_kg":null,"dimensions":null,"purposes":["comms"],"wikipedia_slug":null,"has_3d_model":false,"image_url":null,"decayed_at":null,"tle_current":{"epoch":"2026-09-20T09:12:06.566976Z","epoch_age_seconds":91782,"freshness":"FRESH","line1":"1 67043U 25294P   26263.38340934  .00012079  00000+0  44767-3 0  9994","line2":"2 67043  43.0024  18.6695 0001430 266.6262  93.4426 15.27586000 44570","mean_motion":15.27586,"eccentricity":0.000143,"inclination_deg":43.0024,"raan_deg":18.6695,"arg_perigee_deg":266.6262,"mean_anomaly_deg":93.4426,"bstar":0.00044767,"rev_number":4457,"period_min":94.266378455943,"perigee_km":482.04998289739,"apogee_km":484.01227698255,"semimajor_km":6861.16812994,"source":"CELESTRAK","updated_at":"2026-09-21T09:00:36.093778Z"}}}